This is the latest recevied weather packets stored in our database for station/object CE7LGA-10. If no packets are shown the sender has not sent any weather packets the latest 10 day(s).
| Time | Temp. | Humidity | Pressure | Rain* | Wind** | Luminosity | Snow |
|---|---|---|---|---|---|---|---|
| 1778073729 | 13.33° C | 76% | 999.1 hPa | - | - | - | - |
| 1778072829 | 13.33° C | 77% | 998.8 hPa | - | - | - | - |
| 1778071929 | 13.33° C | 77% | 998.7 hPa | - | - | - | - |
| 1778071032 | 13.33° C | 77% | 998.5 hPa | - | - | - | - |
| 1778070132 | 13.33° C | 77% | 998.6 hPa | - | - | - | - |
| 1778069232 | 13.33° C | 77% | 998.5 hPa | - | - | - | - |
| 1778068332 | 13.89° C | 78% | 998.4 hPa | - | - | - | - |
| 1778067432 | 13.89° C | 79% | 998.4 hPa | - | - | - | - |
| 1778066532 | 15° C | 81% | 998.3 hPa | - | - | - | - |
| 1778065632 | 14.44° C | 80% | 998.2 hPa | - | - | - | - |
| 1778064731 | 13.33° C | 76% | 998.1 hPa | - | - | - | - |
| 1778063831 | 13.33° C | 77% | 998 hPa | - | - | - | - |
| 1778062931 | 13.33° C | 75% | 997.8 hPa | - | - | - | - |
| 1778062031 | 13.33° C | 75% | 997.9 hPa | - | - | - | - |
| 1778061131 | 13.33° C | 75% | 997.5 hPa | - | - | - | - |
| 1778058431 | 13.33° C | 75% | 997.2 hPa | - | - | - | - |
| 1778057530 | 13.33° C | 75% | 997.1 hPa | - | - | - | - |
| 1778056630 | 13.33° C | 74% | 996.8 hPa | - | - | - | - |
| 1778055730 | 13.33° C | 74% | 997 hPa | - | - | - | - |
| 1778054830 | 13.33° C | 74% | 996.8 hPa | - | - | - | - |
| 1778053930 | 13.89° C | 74% | 997 hPa | - | - | - | - |
| 1778053030 | 13.89° C | 74% | 997 hPa | - | - | - | - |
| 1778052130 | 13.89° C | 74% | 996.9 hPa | - | - | - | - |
| 1778051230 | 13.89° C | 74% | 996.8 hPa | - | - | - | - |
| 1778050329 | 13.89° C | 74% | 996.8 hPa | - | - | - | - |
* Rain since midnight (hover to see other rain measurements)
** Current wind speed in m/s (hover to see current wind gust speed)